logo tempoitalia

Diretta Meteo Faro-Aeroporto, Portogallolunedì 31 agosto ore 06:00

Mappa
Sereno 23 °C Sereno 24 Ore: T.min 22 T.max 28
Ponente Nord/NOvest Km/h 9.3 Punto di rugiada: 6 °C Umidità: 33% Visibilità: 10 Km
Il sole sorge alle: 07:01 Il sole tramonta alle: 20:02
31 Agosto 2026 06:00 tempo osservato: Sereno Sereno 23 33 1017 vento: Nord N/NO 9.3
31 Agosto 2026 05:30 tempo osservato: Sereno Sereno 24 35 1016 vento: Nord N/NO 11.1
31 Agosto 2026 05:00 tempo osservato: Sereno Sereno 24 38 1016 vento: Nord N 11.1
31 Agosto 2026 04:30 tempo osservato: Sereno Sereno 24 38 1017 vento: Nord N 7.4
31 Agosto 2026 04:00 tempo osservato: Sereno Sereno 25 38 1017 vento: Nord N 14.8
31 Agosto 2026 03:30 tempo osservato: Sereno Sereno 25 41 1017 vento: Nord N 20.3
31 Agosto 2026 03:00 tempo osservato: Sereno Sereno 25 50 1017 vento: Nord N 22.2
31 Agosto 2026 02:30 tempo osservato: Sereno Sereno 25 53 1017 vento: Nord N 22.2
31 Agosto 2026 02:00 tempo osservato: Sereno Sereno 25 53 1017 vento: Nord N 20.3
31 Agosto 2026 01:30 tempo osservato: Sereno Sereno 26 50 1017 vento: Nord N 14.8
31 Agosto 2026 01:00 tempo osservato: Sereno Sereno 26 50 1017 vento: Nord N 13
31 Agosto 2026 00:30 tempo osservato: Sereno Sereno 26 54 1017 vento: Nord N 20.3
31 Agosto 2026 00:00 tempo osservato: Sereno Sereno 26 54 1017 vento: Nord N/NO 22.2
30 Agosto 2026 23:30 tempo osservato: Sereno Sereno 27 50 1017 vento: Nord N/NO 25.9
30 Agosto 2026 23:00 tempo osservato: Sereno Sereno 27 50 1017 vento: Nord N/NO 20.3
30 Agosto 2026 22:30 tempo osservato: Sereno Sereno 27 54 1017 vento: Nord N/NO 20.3
30 Agosto 2026 22:00 tempo osservato: Sereno Sereno 27 57 1017 vento: Nord NO 16.7
30 Agosto 2026 21:30 tempo osservato: Sereno Sereno 27 57 1016 vento: Nord N/NO 20.3
30 Agosto 2026 21:00 tempo osservato: Sereno Sereno 28 54 1016 vento: Nord NO 22.2
30 Agosto 2026 20:30 tempo osservato: Sereno Sereno 27 61 1015 vento: Nord NO 11.1
30 Agosto 2026 20:00 tempo osservato: Sereno Sereno 25 69 1015 vento: Nord N 0
30 Agosto 2026 19:30 tempo osservato: Sereno Sereno 25 69 1015 vento: Nord N 5.5
30 Agosto 2026 19:00 tempo osservato: Sereno Sereno 25 69 1015 vento: Nord O 11.1
30 Agosto 2026 18:30 tempo osservato: Sereno Sereno 25 69 1016 vento: Nord O/SO 14.8
30 Agosto 2026 18:00 tempo osservato: Sereno Sereno 26 65 1016 vento: Nord O/SO 13
30 Agosto 2026 17:30 tempo osservato: Sereno Sereno 25 69 1016 vento: Nord SO 11.1
30 Agosto 2026 17:00 tempo osservato: Sereno Sereno 26 65 1016 vento: Nord S/SO 9.3
30 Agosto 2026 16:30 tempo osservato: Sereno Sereno 25 69 1016 vento: Nord SO 11.1
30 Agosto 2026 16:00 tempo osservato: Sereno Sereno 24 73 1017 vento: Nord SO 14.8
30 Agosto 2026 15:30 tempo osservato: Sereno Sereno 24 69 1017 vento: Nord SO 20.3
30 Agosto 2026 15:00 tempo osservato: Sereno Sereno 25 69 1017 vento: Nord S 20.3
30 Agosto 2026 14:30 tempo osservato: Sereno Sereno 26 65 1017 vento: Nord S 18.5
30 Agosto 2026 14:00 tempo osservato: Sereno Sereno 27 57 1017 vento: Nord S/SE 20.3
30 Agosto 2026 13:30 tempo osservato: Sereno Sereno 27 57 1017 vento: Nord S 18.5
30 Agosto 2026 13:00 tempo osservato: Sereno Sereno 26 61 1018 vento: Nord S 18.5
30 Agosto 2026 12:30 tempo osservato: Sereno Sereno 26 61 1018 vento: Nord S/SE 14.8
30 Agosto 2026 12:00 tempo osservato: Sereno Sereno 26 61 1018 vento: Nord S/SE 16.7
30 Agosto 2026 11:30 tempo osservato: Sereno Sereno 26 57 1018 vento: Nord S/SE 16.7
30 Agosto 2026 11:00 tempo osservato: Sereno Sereno 28 48 1017 vento: Nord S 9.3
30 Agosto 2026 10:30 tempo osservato: Sereno Sereno 28 48 1017 vento: Nord N 5.5
30 Agosto 2026 10:00 tempo osservato: Sereno Sereno 27 47 1017 vento: Nord N 5.5
30 Agosto 2026 09:30 tempo osservato: Sereno Sereno 26 54 1017 vento: Nord N 3.7
30 Agosto 2026 09:00 tempo osservato: Sereno Sereno 24 57 1017 vento: Nord N 5.5
30 Agosto 2026 08:30 tempo osservato: Sereno Sereno 24 64 1017 vento: Nord N 5.5
30 Agosto 2026 08:00 tempo osservato: Sereno Sereno 22 68 1017 vento: Nord N 1.8
30 Agosto 2026 07:30 tempo osservato: Sereno Sereno 22 64 1017 vento: Nord N 3.7
30 Agosto 2026 07:00 tempo osservato: Sereno Sereno 22 60 1016 vento: Nord N/NE 7.4